Overview Statistics Trail Chart Weather Telemetry Raw packets
 

This is the latest recevied weather packets stored in our database for station/object ES0THZ-13. If no packets are shown the sender has not sent any weather packets the latest 10 day(s).

<< 28 29 30 31 32 >>
Time Temp. Humidity Pressure Rain* Wind** Luminosity Snow
1787830611 25° C 70% 1022.3 hPa - - - -
1787829491 25.56° C 70% 1022.7 hPa - - - -
1787828351 26.11° C 72% 1023.1 hPa - - - -
1787827321 25° C 72% 1022.1 hPa - - - -
1787826201 25° C 74% 1022.7 hPa - - - -
1787825181 24.44° C 74% 1023.1 hPa - - - -
1787824121 23.89° C 75% 1022.9 hPa - - - -
1787823051 23.33° C 76% 1021.1 hPa - - - -
1787821906 22.78° C 77% 1022.2 hPa - - - -
1787820811 22.78° C 78% 1022.9 hPa - - - -
1787819684 23.33° C 79% 1021.7 hPa - - - -
1787818596 22.78° C 79% 1023.2 hPa - - - -
1787817476 22.22° C 81% 1021.7 hPa - - - -
1787816411 21.67° C 82% 1022.7 hPa - - - -
1787815306 21.11° C 82% 1022.1 hPa - - - -
1787814244 21.11° C 82% 1021.6 hPa - - - -
1787813171 21.67° C 83% 1021.6 hPa - - - -
1787812104 21.11° C 84% 1021.6 hPa - - - -
1787811044 21.11° C 83% 1022.4 hPa - - - -
1787808921 17.22° C 84% 1021.4 hPa - - - -
1787807884 15.56° C 85% 1021.5 hPa - - - -
1787806821 13.89° C 87% 1021.7 hPa - - - -
1787805691 12.78° C 87% 1022 hPa - - - -
1787804631 13.33° C 87% 1021.8 hPa - - - -
1787803591 12.78° C 87% 1022.1 hPa - - - -

* Rain since midnight (hover to see other rain measurements)
** Current wind speed in m/s (hover to see current wind gust speed)